Location: Laguna de la Cañada del Gallo
(40.3974°N, 5.2096°W)
Time: 20:22:11
(UTC+00:00)

METEOR 2-5 DEB - Visible Passes

Search period start: 19 September 2024 00:00
Search period end: 29 September 2024 00:00
Orbit: 777 x 816 km, 81.2° (Epoch: 19 September)

Date Brightness Start Highest point End Pass type
(mag) Time Alt. Az. Time Alt. Az. Time Alt. Az.
19 Sep ? 04:29:15 10° SSE 04:34:06 38° E 04:38:57 10° NNE visible
20 Sep ? 04:01:54 10° SE 04:06:06 25° E 04:10:19 10° NE visible
21 Sep ? 03:35:02 10° ESE 03:38:09 16° E 03:41:15 10° NE visible
21 Sep ? 05:14:10 10° SSW 05:19:22 57° WNW 05:24:33 10° N visible
22 Sep ? 04:45:50 10° S 04:51:07 88° W 04:56:25 10° N visible
23 Sep ? 04:17:45 10° S 04:22:56 60° E 04:28:07 10° NNE visible
24 Sep ? 03:49:57 10° SSE 03:54:47 38° E 03:59:37 10° NNE visible
24 Sep ? 05:32:25 10° SW 05:36:39 24° WNW 05:40:54 10° NNW visible
25 Sep ? 03:22:47 11° SE 03:26:41 25° E 03:30:53 10° NE visible
25 Sep ? 05:03:44 12° SW 05:08:13 36° WNW 05:13:04 10° N visible
26 Sep ? 02:55:56 11° ESE 02:58:37 16° E 03:01:43 10° NE visible
26 Sep ? 04:36:51 25° SSW 04:39:50 57° WNW 04:45:01 10° N visible
27 Sep ? 04:09:48 45° S 04:11:29 88° W 04:16:46 10° N visible
28 Sep ? 03:42:36 56° SE 03:43:12 60° E 03:48:22 10° NNE visible
28 Sep ? 05:23:31 14° W 05:25:24 16° WNW 05:28:36 10° NNW visible
